Flag for Jamaica Weather past 2 weeks in May Pen, Jamaica

Now
77 °F

Broken clouds.


Feels Like: 78 °F
Forecast: N/A
Wind: 12 mph from North

Location: Kingston / Norman Manley

Current Time: Jan 30, 2015 at 5:47:35 PM

Latest Report: Jan 30, 2015 at 5:00 PM


Visibility: N/A

Pressure: 29.95 "Hg

Humidity: 83%

Dew point: 72 °F

Location of May PenLocation

Historic Weather in May Pen — Graph

°F

May Pen temperature yesterday

Maximum temperature yesterday: 88 °F (at 1:00 PM)
Minimum temperature yesterday: 75 °F (at 4:00 AM)
Average temperature yesterday: 80 °F

Past Weeks' High & Low Weather Summary

 TemperatureHumidityPressure
High90 °F (Jan 28, 1:00 PM)89% (Jan 17, 7:00 AM)30.07 "Hg (Jan 17, 7:00 AM)
Low73 °F (Jan 17, 7:00 AM)46% (Jan 21, 1:00 PM)29.89 "Hg (Jan 25, 2:00 PM)
Average80 °F71%29.97 "Hg
* Reported Jan 15 4:00 PM — Jan 30 4:00 PM, May Pen, Weather by CustomWeather, © 2014

Note: Actual official high and low records may vary slightly from our data, if they occured in-between our weather recording intervals... More about our weather records

Advertising

May Pen weather history for previous 24 hours

 ConditionsComfort  
Time TempWeatherWind HumidityBarometerVisibility
4:00 PM
Jan 30
81 °FBroken clouds.10 mph79%29.95 "HgN/A
3:00 PM86 °FScattered showers. Scattered clouds.15 mph59%29.92 "HgN/A
2:00 PM86 °FPassing clouds.8 mph59%29.95 "HgN/A
1:00 PM88 °FScattered clouds.10 mph59%29.98 "HgN/A
12:00 PM82 °FPassing clouds.10 mph66%30.01 "HgN/A
11:00 AM82 °FScattered clouds.8 mph62%30.01 "HgN/A
10:00 AM82 °FScattered clouds.3 mph62%30.01 "HgN/A
9:00 AM81 °FScattered clouds.5 mph70%30.01 "HgN/A
8:00 AM77 °FPassing clouds.10 mph79%29.98 "HgN/A
7:00 AM75 °FPassing clouds.7 mph83%29.98 "HgN/A
6:00 AM75 °FPassing clouds.7 mph74%29.95 "HgN/A
5:00 AM75 °FPassing clouds.5 mph74%29.95 "HgN/A
4:00 AM77 °FPassing clouds.9 mph74%29.92 "HgN/A
3:00 AM77 °FPassing clouds.7 mph69%29.95 "HgN/A
2:00 AM77 °FPassing clouds.7 mph74%29.95 "HgN/A
1:00 AM75 °FPassing clouds.3 mph83%29.98 "HgN/A
12:00 AM79 °FPassing clouds.1 mph74%29.98 "HgN/A
11:00 PM
Jan 29
79 °FPassing clouds.3 mph74%29.98 "HgN/A
10:00 PM79 °FPassing clouds.3 mph70%30.01 "HgN/A
9:00 PM79 °FPassing clouds.7 mph70%29.98 "HgN/A
8:00 PM81 °FPassing clouds.9 mph66%29.98 "HgN/A
7:00 PM81 °FPartly cloudy.6 mph70%29.95 "HgN/A
6:00 PM81 °FPartly cloudy.10 mph70%29.95 "HgN/A
5:00 PM82 °FBroken clouds.13 mph62%29.92 "HgN/A
Weather by CustomWeather, © 2014

See weather overviewHow to use our weather pages